Weather History for Tatlayoko Lake Rcs, BC

Change the Weather History Date:

Thursday, December 26, 2013

  Actual Average Record
Temperature  
Mean Temperature 42 °F -  
Max Temperature 53 °F - - ()
Min Temperature 30 °F - - ()
Degree Days  
Heating Degree Days 24    
Moisture  
Dew Point 30 °F    
Average Humidity 65    
Maximum Humidity 88    
Minimum Humidity 33    
Precipitation  
Precipitation 0.00 in - - ()
Sea Level Pressure  
Sea Level Pressure 29.98 in    
Wind  
Wind Speed 8 mph ()    
Max Wind Speed 17 mph    
Max Gust Speed 33 mph    
T = Trace of Precipitation, MM = Missing Value Source: Averaged Metar Reports

Daily Weather History Graph

Daily Weather History Graph

Search for Another Location

Airport:

Trip Planner

Search our weather history database for the weather conditions in past years. The results will help you decide how hot, cold, wet, or windy it might be!

Date:

Astronomy

Dec. 26, 2013 Rise Set
Actual Time 8:23 AM PST 4:13 PM PST
Civil Twilight 7:43 AM PST 4:53 PM PST
Nautical Twilight 6:59 AM PST 5:36 PM PST
Astronomical Twilight 6:19 AM PST 6:17 PM PST
Moon 1:26 AM PST (12/26) 12:20 PM PST (12/26)
Length of Visible Light 9h 10m
Length of Day
7h 49m
Last Quarter, 37% of the Moon is Illuminated
Dec 26
Last Quarter
Jan 1
New
Jan 7
First Quarter
Jan 15
Full
Jan 23
Last Quarter

Hourly Weather History & Observations

Time (PST) Temp. Windchill Dew Point Humidity Pressure Visibility Wind Dir Wind Speed Gust Speed Precip Events Conditions
12:00 AM 36.7 °F 28.9 °F 31.8 °F 83% 30.17 in - SE 11.5 mph 20.7 mph N/A   Unknown
1:00 AM 36.3 °F 30.8 °F 31.8 °F 84% 30.13 in - SE 6.9 mph 23.0 mph N/A   Unknown
2:00 AM 36.5 °F 27.4 °F 31.8 °F 83% 30.13 in - SE 15.0 mph 24.2 mph N/A   Unknown
3:00 AM 37.2 °F 30.6 °F 32.4 °F 83% 30.11 in - SE 9.2 mph 24.2 mph N/A   Unknown
4:00 AM 39 °F - 33 °F 70% 30.08 in - SSE 8.1 mph - -  
4:00 AM 39.2 °F 34.2 °F 32.7 °F 78% 30.08 in - SE 6.9 mph 18.4 mph N/A   Unknown
5:00 AM 40.6 °F 35.4 °F 33.4 °F 75% 30.03 in - South 8.1 mph 19.6 mph N/A   Unknown
6:00 AM 47.8 °F - 32.2 °F 55% 29.98 in - SSE 17.3 mph 26.5 mph N/A   Unknown
7:00 AM 47.8 °F - 32.7 °F 56% 29.96 in - SSE 10.4 mph 18.4 mph N/A   Unknown
8:00 AM 43.2 °F - 31.5 °F 63% 29.96 in - West 2.3 mph - N/A   Unknown
9:00 AM 36.3 °F - 30.9 °F 81% 29.99 in - WNW 2.3 mph - N/A   Unknown
10:00 AM 38 °F - 32 °F 70% 29.97 in - WNW 4.6 mph - -  
10:00 AM 38.1 °F 34.6 °F 31.6 °F 77% 29.97 in - NW 4.6 mph - N/A   Unknown
11:00 AM 50.5 °F - 33.3 °F 52% 29.95 in - South 13.8 mph 20.7 mph N/A   Unknown
12:00 PM 52.7 °F - 31.1 °F 44% 29.93 in - South 16.1 mph 33.4 mph N/A   Unknown
1:00 PM 52.5 °F - 30.2 °F 42% 29.91 in - South 13.8 mph 21.9 mph N/A   Unknown
2:00 PM 51.1 °F - 29.1 °F 43% 29.93 in - South 9.2 mph 20.7 mph N/A   Unknown
3:00 PM 50.0 °F - 28.9 °F 44% 29.93 in - SSE 12.7 mph 23.0 mph N/A   Unknown
4:00 PM 49 °F - 29 °F 33% 29.94 in - SE 10.4 mph - -  
4:00 PM 48.6 °F - 28.8 °F 46% 29.94 in - SE 8.1 mph 24.2 mph N/A   Unknown
5:00 PM 49.1 °F - 28.8 °F 45% 29.93 in - SSE 11.5 mph 26.5 mph N/A   Unknown
6:00 PM 38.3 °F 33.9 °F 28.9 °F 69% 29.94 in - SW 5.8 mph - N/A   Unknown
7:00 PM 37.2 °F 32.6 °F 27.9 °F 69% 29.94 in - NE 5.8 mph - N/A   Unknown
8:00 PM 32.9 °F 28.5 °F 28.0 °F 82% 29.95 in - WNW 4.6 mph - N/A   Unknown
9:00 PM 30.7 °F - 27.5 °F 88% 29.96 in - NNW 2.3 mph - N/A   Unknown
10:00 PM 31 °F - 27 °F 80% 29.94 in - NNW 4.6 mph - -  
10:00 PM 30.6 °F 24.7 °F 27.1 °F 87% 29.94 in - North 5.8 mph - N/A   Unknown
11:00 PM 47.7 °F - 27.7 °F 46% 29.87 in - SSE 10.4 mph - N/A   Unknown